Regional Weather Roundup
Issued by NWS

Home | Current Version | Previous Version | Graphics & Text | Print | Product List | Glossary On
Versions: 1 2 3 4 5 6 7 8 9 10 11 12 13 14 15 16 17 18 19 20 21 22 23 24 25 26 27 28 29 30 31 32 33 34 35 36 37 38 39 40 41 42 43 44 45 46 47 48 49 50
000
ASUS45 KBOU 282207
RWRCO

WEATHER ROUNDUP FOR COLORADO
NATIONAL WEATHER SERVICE DENVER/BOULDER CO
300 PM MST SUN DEC 28 2014

NOTE: "FAIR" INDICATES FEW OR NO CLOUDS BELOW 12000 FEET WITH NO
SIGNIFICANT WEATHER AND/OR OBSTRUCTIONS TO VISIBILITY.

COZ001>005-013-030-031-282300-
...NORTHWEST COLORADO...

CITY           SKY/WX    TMP DP  RH WIND       PRES   REMARKS
CRAIG          HVY SNOW  21  17  84 CALM      29.95R VSB 1/4
HAYDEN         CLOUDY    18  12  79 E5        29.92S WCI  11
MEEKER         CLOUDY    26  11  52 SW14      29.94F WCI  14
MOUNT WERNER   NOT AVBL
STEAMBOAT SPGS CLOUDY    16  12  86 CALM      29.91F VSB 1/2
WALDEN         CLOUDY    18   9  68 S13       29.84S WCI   4
$$

COZ006>008-011-282300-
...WEST CENTRAL VALLEYS...

CITY           SKY/WX    TMP DP  RH WIND       PRES   REMARKS
GRAND JUNCTION MOSUNNY   29  13  51 NW7       30.05F WCI  22
MONTROSE       MOSUNNY   32  10  40 W3        30.02F
EAGLE          PTSUNNY   27  18  69 SW12      29.98F WCI  16
RIFLE          CLOUDY    24  14  65 SE3       30.03F
DELTA          MOSUNNY   36   9  33 CALM      30.03F
NUCLA          MOSUNNY   34   9  35 CALM      30.05F
$$

COZ017>023-064>068-282300-
...SOUTHWEST COLORADO...

CITY           SKY/WX    TMP DP  RH WIND       PRES   REMARKS
DURANGO        SUNNY     24  13  62 NE6       30.05F WCI  17
CORTEZ         SUNNY     32   9  38 S3        30.07F
PAGOSA SPRINGS SUNNY     24   9  53 S3        30.03S
TELLURIDE      CLOUDY    26  10  50 W10G20    29.98F WCI  16
WOLF CREEK PAS PTSUNNY    9   5  85 MISG      29.90R FOG
$$

COZ009-010-012-014-032>034-037-058>063-282300-
...CENTRAL COLORADO...

CITY           SKY/WX    TMP DP  RH WIND       PRES   REMARKS
ASPEN          CLOUDY    17  11  77 N5        29.93S WCI  10
BUENA VISTA    PTSUNNY   24   8  49 W21G26    29.87F WCI  10
COPPER MTN     SNOW       9   1  72 W17       29.79S VSB 1/2 WCI -10
BERTHOUD PASS  NOT AVBL
COTTONWOOD PAS CLOUDY    21   7  53 N7        29.83S WCI  13
GUNNISON       CLOUDY     7 -24  23 E3        30.03S
KREMMLING      LGT SNOW  19  14  79 E5        29.91F WCI  13
LEADVILLE      LGT SNOW  12   6  77 NW14      29.83S WCI  -3
MONARCH PASS   LGT SNOW   5   1  85 MISG      29.89F
SALIDA         PTSUNNY   29   8  40 W23G33    29.97S WCI  16
SUNLIGHT       LGT SNOW N/A N/A N/A CALM      29.85F
WILKERSON PASS PTSUNNY   18   7  62 SW7       29.82F WCI   8
$$

COZ069>075-282300-
...SAN LUIS VALLEY/SANGRE DE CRISTO MOUNTAINS...

CITY           SKY/WX    TMP DP  RH WIND       PRES   REMARKS
ALAMOSA        SUNNY     22   5  48 E5        29.95F WCI  16
LA VETA PASS   NOT AVBL
SAGUACHE       PTSUNNY   12   1  62 CALM      29.97F
$$

COZ035-036-038>040-282300-
...NORTHERN COLORADO FRONT RANGE...

CITY           SKY/WX    TMP DP  RH WIND       PRES   REMARKS
DENVER INTL AP MOSUNNY   37  15  40 N12       29.83R
DMNS CITY PARK   N/A     36  12  36 E5        29.84R
AURORA         MOSUNNY   37  11  34 N7        29.84R
FRONT RANGE AP MOSUNNY   34  21  60 NE6       29.84R WCI  29
ERIE MUNI ARPT   N/A     23  14  69 MISG      29.86R
BOULDER MUN AP MOSUNNY   36  10  35 SW13G18   29.83S
CENTENNIAL     PTSUNNY   37  13  37 NE8       29.82R
BROOMFIELD     PTSUNNY   36  12  38 NW17G29   29.83R
FORT COLLINS   SUNNY     25  14  63 N8        29.87F WCI  16
LONGMONT       SUNNY     31  16  53 NE6       29.87S WCI  25
$$

COZ041-046-047-076>085-087-088-282300-
...PIKES PEAK/PALMER DIVIDE AND SOUTHERN FOOTHILLS...

CITY           SKY/WX    TMP DP  RH WIND       PRES   REMARKS
COLO. SPRINGS  MOSUNNY   44   5  20 NW15G23   29.81S
A. F. ACADEMY  SUNNY     39   6  25 W15       29.81R
ELLICOTT       NOT AVBL
FALCON         SUNNY     40   3  21 NW17G23   29.82R
FORT CARSON    SUNNY     44   6  20 W18G24    29.79S
LIMON          SUNNY     34  14  43 N10       29.83R WCI  26
MONUMENT HILL  SUNNY     34  10  37 NW6       29.79S WCI  29
TRINIDAD       SUNNY     31  13  47 SE7       29.85S WCI  24
$$

COZ042>045-048>051-090-091-282300-
...NORTHEAST COLORADO...

CITY           SKY/WX    TMP DP  RH WIND       PRES   REMARKS
GREELEY ARPT   SUNNY     19   9  63 CALM      29.88R
AKRON          MOSUNNY   20  12  71 N6        29.87R WCI  12
BURLINGTON     MOSUNNY   33  19  56 SE7       29.88R WCI  27
WRAY           PTSUNNY   33  19  55 NE3       29.92R
STERLING       MOSUNNY   23  14  68 CALM      29.91R
HOLYOKE        PTSUNNY   34  19  55 E5        29.92R WCI  30
FORT MORGAN    MOSUNNY   21  13  70 CALM      29.89R
$$

COZ086-089-092>099-282300-
...SOUTHEAST COLORADO...

CITY           SKY/WX    TMP DP  RH WIND       PRES   REMARKS
PUEBLO         SUNNY     47   7  19 W28G35    29.81S
LA JUNTA       SUNNY     39  17  41 CALM      29.86S
LAMAR          SUNNY     39  17  41 CALM      29.87F
SPRINGFIELD      N/A     45   8  22 S8        29.85F
$$


USA.gov is the U.S. government's official web portal to all federal, state and local government web resources and services.